TimeMDT,TemperatureF,Dew PointF,Humidity,Sea Level PressureIn,VisibilityMPH,Wind Direction,Wind SpeedMPH,Gust SpeedMPH,PrecipitationIn,Events,Conditions,WindDirDegrees,DateUTC
12:53 AM,77.0,48.9,37,29.85,10.0,Calm,Calm,-,N/A,,Mostly Cloudy,0,2013-07-04 06:53:00
1:53 AM,75.0,51.1,43,29.86,10.0,Variable,5.8,-,0.00,Rain,Light Rain,0,2013-07-04 07:53:00
2:53 AM,72.0,53.1,51,29.86,10.0,Variable,5.8,-,0.00,,Mostly Cloudy,0,2013-07-04 08:53:00
3:53 AM,70.0,54.0,57,29.86,10.0,Calm,Calm,-,N/A,,Clear,0,2013-07-04 09:53:00
4:53 AM,66.9,55.0,66,29.85,10.0,Calm,Calm,-,N/A,,Clear,0,2013-07-04 10:53:00
5:53 AM,63.0,55.0,75,29.86,10.0,NE,3.5,-,N/A,,Clear,40,2013-07-04 11:53:00
6:53 AM,62.1,55.0,78,29.88,10.0,Calm,Calm,-,N/A,,Clear,0,2013-07-04 12:53:00
7:53 AM,66.9,55.9,68,29.90,10.0,SSW,8.1,-,N/A,,Clear,210,2013-07-04 13:53:00
8:53 AM,71.1,55.0,57,29.89,10.0,SSW,6.9,-,N/A,,Clear,210,2013-07-04 14:53:00
9:53 AM,75.9,55.0,48,29.88,10.0,SW,9.2,-,N/A,,Clear,230,2013-07-04 15:53:00
10:53 AM,79.0,55.0,44,29.87,10.0,SSW,9.2,-,N/A,,Clear,210,2013-07-04 16:53:00
11:53 AM,81.0,55.9,42,29.85,10.0,SSW,9.2,-,N/A,,Clear,200,2013-07-04 17:53:00
12:53 PM,84.0,52.0,33,29.82,10.0,SW,8.1,-,N/A,,Clear,220,2013-07-04 18:53:00
1:53 PM,86.0,52.0,31,29.80,10.0,SSW,8.1,-,N/A,,Partly Cloudy,210,2013-07-04 19:53:00
2:53 PM,88.0,48.9,26,29.78,10.0,SW,10.4,-,N/A,,Clear,220,2013-07-04 20:53:00
3:53 PM,86.0,53.1,32,29.76,10.0,WSW,8.1,-,N/A,,Clear,240,2013-07-04 21:53:00
4:53 PM,82.0,57.0,42,29.75,10.0,SSW,8.1,-,0.00,Rain,Light Rain,200,2013-07-04 22:53:00
5:28 PM,82.4,51.8,35,29.90,10.0,WSW,9.2,-,0.00,Thunderstorm,Partly Cloudy,240,2013-07-04 23:28:00
5:53 PM,81.0,51.1,35,29.74,9.0,South,10.4,31.1,0.00,Rain,Rain,180,2013-07-04 23:53:00
6:53 PM,82.9,52.0,34,29.74,10.0,ENE,12.7,18.4,0.00,,Clear,60,2013-07-05 00:53:00
7:53 PM,75.0,54.0,48,29.74,10.0,East,9.2,17.3,N/A,,Clear,90,2013-07-05 01:53:00
8:53 PM,73.0,52.0,48,29.73,10.0,East,6.9,-,N/A,,Clear,80,2013-07-05 02:53:00
9:53 PM,68.0,53.1,59,29.72,10.0,ENE,5.8,-,N/A,,Clear,70,2013-07-05 03:53:00
10:53 PM,66.9,54.0,63,29.73,10.0,NE,6.9,-,N/A,,Clear,50,2013-07-05 04:53:00
11:53 PM,72.0,51.1,48,29.73,10.0,ENE,9.2,-,N/A,,Scattered Clouds,60,2013-07-05 05:53:00